Вернуться в каталог

STARLINK-5170

АктивенСвязьVLEO
NORAD 54062·PAYLOAD·🇺🇸 United States

Запущен Oct 20, 2022 с Cape Canaveral Space Force Station

Loading…

Ближайшие Пролёты (ближайшие 24 часа)

TLE

СвежийSource: CelesTrak SupGP

Эпоха: Sep 15, 2026, 02:06 UTC

1 54062C 22136M   26258.08798611 -.00023856  00000+0 -68262-3 0  2584
2 54062  53.1576 202.9002 0001330  90.6075 290.6747 15.35405916    10

Отслеживайте STARLINK-5170 в реальном времени с AllMySat

Download on the App Store